Tracking 23726 objects as of 25-Sep-2021
HD Live streaming from Space Station
objects crossing your sky now

CHINASAT 20

Track CHINASAT 20 now!
CHINASAT 20 is classified as:


NORAD ID: 28082
Int'l Code: 2003-052A
Perigee: 36,098.6 km
Apogee: 36,147.5 km
Inclination: 6.7 °
Period: 1,453.0 minutes
Semi major axis: 42494 km
RCS: 12.5893 m2 (large)
Launch date: November 14, 2003
Source: People's Republic of China (PRC)
Launch site: Xichang Space Center, China (XSC)

Dedicated military communications satellite.
aabbcc
Your satellite tracking list
Your tracking list is empty




NASA's NSSDC Master Catalog

Two Line Element Set (TLE):
1 28082U 03052A   21267.55037854  .00000081  00000-0  00000+0 0  9993
2 28082   6.6723  63.4874 0005748  57.7594 140.8493  0.99108551 65287
Source of the keplerian elements: AFSPC